Regional Weather Roundup
Issued by NWS

Home | Current Version | Previous Version | Text Only | Print | Product List | Glossary Off
Versions: 1 2 3 4 5 6 7 8 9 10 11 12 13 14 15 16 17 18 19 20 21 22 23 24 25 26 27 28 29 30 31 32 33 34 35 36 37 38 39 40 41 42 43 44 45 46 47 48 49 50

458
ASUS43 KLOT 222204
RWRIL

ILLINOIS REGIONAL WEATHER ROUNDUP
NATIONAL WEATHER SERVICE CHICAGO/ROMEOVILLE IL
500 PM CDT THU JUN 22 2017

NOTE: "FAIR" INDICATES FEW OR NO CLOUDS BELOW 12,000 FEET WITH NO
SIGNIFICANT WEATHER AND/OR OBSTRUCTIONS TO VISIBILITY.

* THESE STATIONS ARE NOT UNDER NWS QUALITY CONTROL. THEY ALSO MAY NOT
  REPORT WEATHER SUCH AS PRECIPITATION OR FOG.

ILZ001-002-007-009-015-016-024-222300-
NORTHWEST ILLINOIS

CITY           SKY/WX    TMP DP  RH WIND       PRES   REMARKS
MOLINE         SUNNY     86  70  58 S14G24    29.69F HX  90
STERLING*      MOSUNNY   84  71  65 VRB7      29.72F HX  89
SAVANNA*       PTSUNNY   85  71  61 S22G29    29.64F HX  90
$$

ILZ003-004-008-010-011-017-018-222300-
NORTH CENTRAL ILLINOIS

CITY           SKY/WX    TMP DP  RH WIND       PRES   REMARKS
ROCKFORD       CLOUDY    85  70  60 S17G29    29.70F HX  89
FREEPORT*      CLOUDY    82  70  66 S13G20    29.72R HX  85
ROCHELLE*      PTSUNNY   86  70  59 SW17G24   29.74F HX  90
DE KALB*       MOSUNNY   85  69  58 SW24      29.75F HX  89
PERU*          PTSUNNY   84  71  63 SW17      29.75F HX  89
$$

ILZ005-006-012>014-019>023-222300-
NORTHEAST ILLINOIS

CITY           SKY/WX    TMP DP  RH WIND       PRES   REMARKS
CHICAGO-OHARE  PTSUNNY   86  69  56 S17G29    29.73F HX  90
CHICAGO-MIDWAY PTSUNNY   85  71  63 S17G24    29.75F HX  90
AURORA         CLOUDY    85  71  63 S17       29.75F HX  90
LANSING*       CLOUDY    84  68  58 SW17G23   29.77F HX  87
JOLIET*        CLOUDY    84  73  70 S12G17    29.77F HX  91
WAUKEGAN       CLOUDY    87  71  58 S16       29.70F HX  93
DUPAGE AIRPORT LGT RAIN  84  72  67 S14       29.74F HX  89
WHEELING       PTSUNNY   87  70  56 SW14G21   29.74F HX  92
MORRIS*        CLOUDY    85  70  60 SW20      29.75F HX  89
ROMEOVILLE*    CLOUDY   N/A N/A N/A SW15      29.76S
NORTHERLY ISL    N/A     84  67  56 S13         N/A  HX  86
$$

LMZ740>746-222300-
SOUTHERN LAKE MICHIGAN

STATION/POSITION SKY/WX   TEMP    WIND        PRES    VSBY  WAVE
                          AIR SEA DIR/SP/G                  HT/PER
                          (F)     (DEG/KT/KT) (MB)    (MI)  (FT/S)
SOUTHERN BUOY              67 61  190/  8/  8 1008.3          2/ 4
WILMETTE HARBOR            77 65  180/ 12/ 17   N/A           1/ 2
HARRISON CRIB              81     200/ 18/ 21   N/A
BURNHAM HARBOR             84                   N/A
CALUMET HARBOR             84     200/ 11/ 18 1007.3F
BURNS HARBOR               83     180/ 14/ 22 1008.5F
MICHIGAN CITY              83     190/ 17/ 21   N/A
MICHIGAN CITY 6N           78 68  210/ 14/ 17   N/A           2/ 3
ST. JOSEPH                 75 69  220/  6/ 10 1007.6F         1/ 3
$$

ILZ025>027-034>036-040-047-049-050-058-095>099-222300-
WEST-CENTRAL ILLINOIS

CITY           SKY/WX    TMP DP  RH WIND       PRES   REMARKS
QUINCY         CLOUDY    82  73  74 S9        29.74F HX  87
GALESBURG*     MOSUNNY   82  71  69 S14       29.75F HX  86
MACOMB*        CLOUDY    82  72  71 S12       29.76F HX  86
JACKSONVILLE*  CLOUDY    83  71  68 S9        29.76S HX  87
$$

ILZ028>032-037-038-041>044-048-051>054-059>061-222300-
CENTRAL ILLINOIS

CITY           SKY/WX    TMP DP  RH WIND       PRES   REMARKS
PONTIAC        CLOUDY    83  74  73 S13       29.78F HX  90
BLOOMINGTON    CLOUDY    81  72  74 S10       29.79F HX  85
DECATUR        CLOUDY    79  72  79 S16       29.79S HX  82
PEORIA         PTSUNNY   83  73  72 S10       29.75F HX  89
LACON*         PTSUNNY   82  73  72 SW10      29.74F HX  88
LINCOLN*       CLOUDY    84  73  70 S7G17     29.77F HX  90
SPRINGFIELD    CLOUDY    83  74  74 S12       29.77S HX  89
TAYLORVILLE    CLOUDY    79  73  80 SE13      29.79S HX  83
$$

ILZ033-039-045-046-055>057-062-063-222300-
EAST-CENTRAL ILLINOIS

CITY           SKY/WX    TMP DP  RH WIND       PRES   REMARKS
CHAMPAIGN      LGT RAIN  77  71  82 S14G25    29.81F
RANTOUL*       CLOUDY    83  73  70 S16G23    29.80F HX  89
MATTOON        CLOUDY    75  73  93 S14G21    29.82F
PARIS*         CLOUDY    77  71  82 S16G22    29.85S
$$

ILZ079-100>102-222300-
SOUTHWEST ILLINOIS

CITY           SKY/WX    TMP DP  RH WIND       PRES   REMARKS
ALTON          CLOUDY    81  72  74 SE9       29.77F HX  84
BELLEVILLE     CLOUDY    83  75  77 S9        29.77S HX  89
CAHOKIA*       PTSUNNY   86  71  60 VRB6      29.75F HX  91
SPARTA*        CLOUDY    80  73  79 SE8       29.79S HX  84
$$

ILZ064>066-069>071-074>076-080>082-084>086-088>090-092>094-222300-
SOUTH-CENTRAL ILLINOIS

CITY           SKY/WX    TMP DP  RH WIND       PRES   REMARKS
CARBONDALE     CLOUDY    79  75  87 E6        29.79F HX  83
CAIRO*         MOSUNNY   81  75  82 SE9       29.78F HX  87
EFFINGHAM*     CLOUDY    77  73  87 SE12G17   29.82F
MARION         CLOUDY    79  79 100 S7        29.81F HX  83
MT. VERNON     LGT RAIN  76  74  93 SE8       29.81F
CENTRALIA*     DRIZZLE   76  75  96 CALM      29.79F
SALEM*         CLOUDY    77  73  87 SE7       29.80F
METROPOLIS*    CLOUDY    80  75  85 CALM      29.81F HX  85
$$

ILZ067-068-072-073-078-083-087-091-222300-
SOUTHEAST ILLINOIS

CITY           SKY/WX    TMP DP  RH WIND       PRES   REMARKS
LAWRENCEVILLE  CLOUDY    76  72  87 SE18      29.84F
FLORA*         CLOUDY    77  73  88 SE13      29.82F
FAIRFIELD*     CLOUDY    75  74  95 SE6       29.81F FOG
HARRISBURG*    CLOUDY    77  74  90 SE10G16   29.82F
ROBINSON*      CLOUDY    74  71  91 SE10      29.85F
CARMI*         CLOUDY    75  73  92 SE9       29.83S
$$

ABBREVIATIONS USED IN REMARKS
   TC - TEMPERATURE IN CELSIUS
  WCI - WIND CHILL INDEX
   HX - HEAT INDEX
  VSB - VISIBILITY
$$





USA.gov is the U.S. government's official web portal to all federal, state and local government web resources and services.